User: anonymous   Login
Location: Asheville, NC
(35.6000°N, 82.5500°W)
Time: 20:42:43
(UTC-04:00)
Language:

DUCHIFAT 1 - Orbit

View from above orbital plane
View from above orbital plane
View from above satellite
View from above satellite

Ground track
Ground track

The orbit data is extracted from the following two-line orbital elements,

1 40021U 14033M   18198.33893961  .00000332  00000-0  39948-4 0  9992
2 40021  97.9149 117.1123 0014597  79.9815 280.3049 14.90338957221447
Epoch (UTC): 17 July 2018 08:08:04
Eccentricity: 0.0014597
inclination: 97.9149°
perigee height: 587 km
apogee height: 607 km
right ascension of ascending node: 117.1123°
argument of perigee: 79.9815°
revolutions per day: 14.90338957
mean anomaly at epoch: 280.3049°
orbit number at epoch: 22144

The dashed part of the orbit path shows where the satellite is in the earth's shadow,  

DLR